Regional Weather Roundup
Issued by NWS

Home | Current Version | Previous Version | Text Only | Print | Product List | Glossary On
Versions: 1 2 3 4 5 6 7 8 9 10 11 12 13 14 15 16 17 18 19 20 21 22 23 24 25 26 27 28 29 30 31 32 33 34 35 36 37 38 39 40 41 42 43 44 45 46 47 48
000
ASUS42 KTBW 300716
RWRFL
FLORIDA REGIONAL WEATHER ROUNDUP
NATIONAL WEATHER SERVICE TAMPA BAY RUSKIN FL
300 AM EDT SAT APR 30 2016

NOTE: "FAIR" INDICATES FEW OR NO CLOUDS BELOW 12,000 FEET WITH NO
SIGNIFICANT WEATHER AND/OR OBSTRUCTIONS TO VISIBILITY.

FLZ001>010-012>015-112-114-115-300800-
PANHANDLE FLORIDA

CITY           SKY/WX    TMP DP  RH WIND       PRES   REMARKS
PENSACOLA      MOCLDY    75  72  90 E9        29.88F
MILTON NAS     LGT RAIN  72  72 100 E6        29.90
CRESTVIEW      FOG       71  70  96 CALM      29.93F VSB 1/4
DUKE FIELD     CLOUDY    72  72 100 NE5       29.90F FOG
VALPARAISO     PTCLDY    73  71  95 CALM      29.89F
MARY ESTHER    CLOUDY    74  73  96 CALM      29.87F
PANAMA CITY    FOG       69  68  96 N3        29.89F VSB 1/4
TYNDALL AFB    FOG       70  70 100 CALM      29.90F VSB 1/2
APALACHICOLA   FOG       71  71 100 NE3       29.91F VSB<1/4

STATION/POSITION SKY/WX   TEMP    WIND        PRES    WAVE   SWELL
                          AIR SEA DIR/SP/G            HT/PER HT/PER
                          (F)     (DEG/KT/KT) (MB)    (FT/S) (FT/S)
30.1N   87.6W              75 74  120/ 10/ 10 1010.8F   2/ 5   2/ 5
29.2N   88.2W              75 74  130/ 12/ 14 1011.4F
28.8N   86.0W              78 78  130/ 10/ 12 1012.3F   2/ 6   2/ 6
PANAMA CITY BEAC           74 78  110/  4/  5 1013.4F
TOWER C                    74      80/  4/  5 1013.1F
28.5N   84.5W              75 76  110/  6/  6 1012.7F   1/ 5   2/ 5

$$
FLZ011-016>038-118-127-128-134-139-239-300800-
NORTH FLORIDA

CITY           SKY/WX    TMP DP  RH WIND       PRES   REMARKS
MARIANNA       CLOUDY    71  71 100 CALM      29.91F
TALLAHASSEE    CLEAR     67  64  90 CALM      29.92F
PERRY          FOG       69  68  96 CALM      29.92F VSB 3/4
LIVE OAK         N/A     72  72 100 CALM      29.96F
CROSS CITY       N/A     73  70  90 E3        29.94F
LAKE CITY      FAIR      68  68 100 CALM      29.96S
GAINESVILLE    MOCLDY    70  67  90 CALM      29.96S
WILLISTON      FAIR      70  70 100 CALM      29.96S
PALATKA        CLOUDY    73  73 100 S3        29.96S
MAYPORT NAS    CLEAR     70  69  97 S3        29.96S
JACKSONVILLE   PTCLDY    69  68  96 CALM      29.94F
JAX NAS        MOCLDY    77  71  82 S5        29.96F
JAX CECIL      PTCLDY    66  66 100 CALM      29.96F
FERNANDINA BEA FAIR      73  70  88 CALM      29.95S
ST AUGUSTINE   MOCLDY    72  70  93 CALM      29.97S
PALM COAST     MOCLDY    70  70 100 CALM      29.95F

STATION/POSITION SKY/WX   TEMP    WIND        PRES    WAVE   SWELL
                          AIR SEA DIR/SP/G            HT/PER HT/PER
                          (F)     (DEG/KT/KT) (MB)    (FT/S) (FT/S)
SHELL POINT                74     300/  4/  5 1013.3
KEATON BEACH               71      60/  2/  3 1012.7F
CEDAR KEY                  75      30/  3/  4 1013.9F
FERNANDINA                 73 72  130/  2/  4 1014.5S
30.7N   81.3W                 73                N/A     1/10
MAYPORT                    73 72  210/  3/  5 1014.6F
ST AUGUSTINE               72 70  220/  3/  3 1015.1S

$$
FLZ040-043>046-052-053-057-058-063-144-300800-
INTERIOR CENTRAL FLORIDA

CITY           SKY/WX    TMP DP  RH WIND       PRES   REMARKS
OCALA          CLEAR     68  64  88 CALM      29.95F
THE VILLAGES     N/A     73  72  94 CALM      29.85F
LEESBURG       CLEAR     75  69  81 SE6       29.95F
SANFORD        MOCLDY    74  69  85 S6        29.95S
ORLANDO EXEC   PTCLDY    74  68  81 SE5       29.95F
ORLANDO INTL   PTCLDY    73  67  81 SE5       29.95F
WINTER HAVEN   CLEAR     74  69  85 S7        29.96S
BARTOW         FAIR      68  68 100 CALM      29.96S
OKEECHOBEE     CLEAR     70  68  94 CALM      29.95F

$$
FLZ041-047-054-059-064-141-147-300800-
EAST CENTRAL FLORIDA

CITY           SKY/WX    TMP DP  RH WIND       PRES   REMARKS
DAYTONA BEACH  PTCLDY    71  69  93 CALM      29.95F FOG
DELAND           N/A     70  68  94 CALM      29.97S
JFK SPACE CTR  PTCLDY    71  69  94 SW2       29.94F
CAPE CANAVERAL CLEAR     74  71  90 S5        29.93F
PATRICK AFB    CLEAR     74  70  86 SW8       29.94F
MELBOURNE      CLEAR     72  68  87 S3        29.94F
VERO BEACH     CLEAR     71  67  87 SW6       29.95F
FT PIERCE      CLEAR     66  64  93 W5        29.94F
STUART         CLEAR     75  70  83 CALM      29.95F

STATION/POSITION SKY/WX   TEMP    WIND        PRES    WAVE   SWELL
                          AIR SEA DIR/SP/G            HT/PER HT/PER
                          (F)     (DEG/KT/KT) (MB)    (FT/S) (FT/S)
28.5N   80.2W              77 78  170/ 10/ 10 1014.4F
28.9N   78.5W              76 77  180/  4/  4 1014.7F
TRIDENT PIER               77 79  150/  8/ 11 1014.4F
28.4N   80.5W                 77                N/A     2/11
27.5N   80.2W                 78                N/A     2/ 3

$$
FLZ050-056-061-142-242-148-248-149-249-151-251-155-255-
160-260-300800-
WEST CENTRAL FLORIDA

CITY           SKY/WX    TMP DP  RH WIND       PRES   REMARKS
CRYSTAL RIVER  FAIR      68  66  94 CALM      29.95R
INVERNESS      FAIR      68  68 100 CALM      29.95F FOG
BROOKSVILLE    PTCLDY    66  64  93 CALM      29.95F
ZEPHYRHILLS    FAIR      67  63  87 CALM      29.94F
CLEARWATER AIR FAIR      72  68  88 CALM      29.92F
ST PETE CLEARW CLEAR     77  69  76 N3        29.93F
TAMPA INTL     CLEAR     75  68  78 CALM      29.93F
TAMPA EXEC     CLEAR     70  66  88 CALM      29.94S
PLANT CITY     PTCLDY    70  68  94 CALM      29.95S
MACDILL AFB    CLEAR     71  69  94 N2        29.93F
PETER O KNIGHT CLEAR     77  70  78 CALM      29.93F
ST PETERSBURG  CLEAR     77  68  73 S6        29.92F
SARASOTA       MOCLDY    75  69  81 SE5       29.92F
VENICE         NOT AVBL

STATION/POSITION SKY/WX   TEMP    WIND        PRES    WAVE   SWELL
                          AIR SEA DIR/SP/G            HT/PER HT/PER
                          (F)     (DEG/KT/KT) (MB)    (FT/S) (FT/S)
27.3N   84.2W                 80                N/A     2/ 6
CLEARWATER BEACH           77 81   50/  4/  4 1013.8F
MIDDLE TAMPA BAY NOT AVBL
VENICE                     76 81   90/  3/  4 1013.0F

$$
FLZ066-069-070-075>078-162-262-165-265-300800-
SOUTHWEST FLORIDA AND KEYS

CITY           SKY/WX    TMP DP  RH WIND       PRES   REMARKS
PUNTA GORDA    PTCLDY    68  68 100 E5        29.94F
FT MYERS       CLEAR     70  69  97 CALM      29.92F
SOUTHWEST INTL CLEAR     69  66  90 CALM      29.93F
NAPLES         CLEAR     71  68  90 E6        29.93F
MARCO ISLAND   CLEAR     70  64  83 E5        29.93S
MARATHON       CLEAR     77  67  71 E8        29.92F
KEY WEST NAS   CLOUDY    78  69  73 SE13      29.92F
KEY WEST INTL  CLOUDY    77  71  82 SE16      29.93S

STATION/POSITION SKY/WX   TEMP    WIND        PRES    WAVE   SWELL
                          AIR SEA DIR/SP/G            HT/PER HT/PER
                          (F)     (DEG/KT/KT) (MB)    (FT/S) (FT/S)
NAPLES                        83              1013.8F
26.0N   85.6W              79 80  110/ 16/ 19 1011.6F   3/ 6
DRY TORTUGAS               78     130/ 14/ 15 1012.9F
SAND KEY                   78     130/ 16/ 19 1013.4F
LONG KEY                   78 81  110/ 14/ 16 1013.8F

$$
FLZ067-068-071>074-168-172>174-300800-
SOUTHEAST FLORIDA

CITY           SKY/WX    TMP DP  RH WIND       PRES   REMARKS
W PALM BEACH   PTCLDY    75  67  76 SE6       29.95F
FT LAUDER-EXEC CLEAR     76  65  68 E6        29.93F
FT LAUDERDALE  PTCLDY    77  64  64 SE9       29.93F
POMPANO BEACH  CLEAR     73  64  73 SE8       29.94F
PEMBROKE PINES CLEAR     75  65  70 E8        29.95F
OPA LOCKA      CLEAR     75  65  70 E7        29.94F
MIAMI          PTCLDY    76  65  68 E9        29.94F
WEST KENDALL     N/A    N/A N/A N/A MISG      29.93F
HOMESTEAD      CLEAR     75  65  71 E7        29.93F

STATION/POSITION SKY/WX   TEMP    WIND        PRES    WAVE   SWELL
                          AIR SEA DIR/SP/G            HT/PER HT/PER
                          (F)     (DEG/KT/KT) (MB)    (FT/S) (FT/S)
PORT EVERGLADES            78     100/  4/  7 1013.6F
VIRGINIA KEY               78 81   90/ 11/ 13 1014.2F
LAKE WORTH                 77 79  150/ 10/ 11 1014.2F
SETTLEMENT POINT           74     140/  7/  8 1014.6F

$$




USA.gov is the U.S. government's official web portal to all federal, state and local government web resources and services.